Satellite-Ground Cal/Val Site Overpasses Predictions

Prediction of Satellite NPP Overpassing Cal/Val Site: Antarctic Dome C

Ground Cal/Val Site Location: Latitude: -75.10, Longitude: 123.35; Satellite-Ground Site NADIR distance within 100 km.

Table of predicted overpasses for the next 14.0 days since TLE Epoch: 2/15/2019
Interval Starting Time Ending Time Minimum Distance Time Minimum Distance (km)
1 02/17/2019 07:31:32 02/17/2019 07:32:01 02/17/2019 07:31:46 2.91
2 02/20/2019 14:54:57 02/20/2019 14:55:25 02/20/2019 14:55:11 22.15
3 02/21/2019 14:36:15 02/21/2019 14:36:30 02/21/2019 14:36:22 84.95
4 02/22/2019 07:37:47 02/22/2019 07:38:14 02/22/2019 07:38:01 37.33
5 02/23/2019 07:19:00 02/23/2019 07:19:20 02/23/2019 07:19:10 72.69
6 02/25/2019 15:01:14 02/25/2019 15:01:37 02/25/2019 15:01:26 59.05
7 02/26/2019 14:42:23 02/26/2019 14:42:49 02/26/2019 14:42:36 50.20
8 02/27/2019 07:44:04 02/27/2019 07:44:24 02/27/2019 07:44:14 72.32


NCC Satellite Cal/Val Overpasses Prediction Service
